Year,Month,Day,Hour,Minute,Value (Times are PST for temperature in C)
2017,04,25,00,00,8.70
2017,04,25,00,01,8.70
2017,04,25,00,02,8.70
2017,04,25,00,03,8.70
2017,04,25,00,04,8.70
2017,04,25,00,05,8.60
2017,04,25,00,06,8.60
2017,04,25,00,07,8.60
2017,04,25,00,08,8.60
2017,04,25,00,09,8.50
2017,04,25,00,10,8.50
2017,04,25,00,11,8.50
2017,04,25,00,12,8.50
2017,04,25,00,13,8.40
2017,04,25,00,14,8.40
2017,04,25,00,15,8.40
2017,04,25,00,16,8.40
2017,04,25,00,17,8.40
2017,04,25,00,18,8.30
2017,04,25,00,19,8.30
2017,04,25,00,20,8.30
2017,04,25,00,21,8.30
2017,04,25,00,22,8.30
2017,04,25,00,23,8.30
2017,04,25,00,24,8.30
2017,04,25,00,25,8.30
2017,04,25,00,26,8.30
2017,04,25,00,27,8.30
2017,04,25,00,28,8.30
2017,04,25,00,29,8.30
2017,04,25,00,30,8.30
2017,04,25,00,31,8.30
2017,04,25,00,32,8.30
2017,04,25,00,33,8.30
2017,04,25,00,34,8.30
2017,04,25,00,35,8.30
2017,04,25,00,36,8.30
2017,04,25,00,37,8.30
2017,04,25,00,38,8.30
2017,04,25,00,39,8.30
2017,04,25,00,40,8.30
2017,04,25,00,41,8.20
2017,04,25,00,42,8.20
2017,04,25,00,43,8.20
2017,04,25,00,44,8.20
2017,04,25,00,45,8.20
2017,04,25,00,46,8.20
2017,04,25,00,47,8.20
2017,04,25,00,48,8.20
2017,04,25,00,49,8.20
2017,04,25,00,50,8.10
2017,04,25,00,51,8.10
2017,04,25,00,52,8.10
2017,04,25,00,53,8.10
2017,04,25,00,54,8.10
2017,04,25,00,55,8.10
2017,04,25,00,56,8.00
2017,04,25,00,57,8.00
2017,04,25,00,58,8.00
2017,04,25,00,59,8.00
2017,04,25,01,00,8.00
2017,04,25,01,01,8.00
2017,04,25,01,02,7.90
2017,04,25,01,03,7.90
2017,04,25,01,04,7.90
2017,04,25,01,05,7.90
2017,04,25,01,06,7.90
2017,04,25,01,07,7.90
2017,04,25,01,08,7.90
2017,04,25,01,09,7.90
2017,04,25,01,10,7.80
2017,04,25,01,11,7.80
2017,04,25,01,12,7.80
2017,04,25,01,13,7.80
2017,04,25,01,14,7.80
2017,04,25,01,15,7.70
2017,04,25,01,16,7.70
2017,04,25,01,17,7.70
2017,04,25,01,18,7.70
2017,04,25,01,19,7.70
2017,04,25,01,20,7.60
2017,04,25,01,21,7.60
2017,04,25,01,22,7.60
2017,04,25,01,23,7.60
2017,04,25,01,24,7.50
2017,04,25,01,25,7.50
2017,04,25,01,26,7.40
2017,04,25,01,27,7.40
2017,04,25,01,28,7.40
2017,04,25,01,29,7.40
2017,04,25,01,30,7.40
2017,04,25,01,31,7.30
2017,04,25,01,32,7.30
2017,04,25,01,33,7.30
2017,04,25,01,34,7.20
2017,04,25,01,35,7.20
2017,04,25,01,36,7.20
2017,04,25,01,37,7.20
2017,04,25,01,38,7.20
2017,04,25,01,39,7.10
2017,04,25,01,40,7.10
2017,04,25,01,41,7.10
2017,04,25,01,42,7.00
2017,04,25,01,43,7.00
2017,04,25,01,44,7.00
2017,04,25,01,45,6.90
2017,04,25,01,46,6.90
2017,04,25,01,47,6.90
2017,04,25,01,48,6.90
2017,04,25,01,49,6.80
2017,04,25,01,50,6.80
2017,04,25,01,51,6.80
2017,04,25,01,52,6.70
2017,04,25,01,53,6.70
2017,04,25,01,54,6.70
2017,04,25,01,55,6.70
2017,04,25,01,56,6.60
2017,04,25,01,57,6.60
2017,04,25,01,58,6.60
2017,04,25,01,59,6.60
2017,04,25,02,00,6.50
2017,04,25,02,01,6.50
2017,04,25,02,02,6.50
2017,04,25,02,03,6.50
2017,04,25,02,04,6.40
2017,04,25,02,05,6.40
2017,04,25,02,06,6.40
2017,04,25,02,07,6.40
2017,04,25,02,08,6.30
2017,04,25,02,09,6.30
2017,04,25,02,10,6.30
2017,04,25,02,11,6.30
2017,04,25,02,12,6.30
2017,04,25,02,13,6.20
2017,04,25,02,14,6.20
2017,04,25,02,15,6.20
2017,04,25,02,16,6.20
2017,04,25,02,17,6.20
2017,04,25,02,18,6.20
2017,04,25,02,19,6.20
2017,04,25,02,20,6.20
2017,04,25,02,21,6.20
2017,04,25,02,22,6.10
2017,04,25,02,23,6.10
2017,04,25,02,24,6.10
2017,04,25,02,25,6.10
2017,04,25,02,26,6.10
2017,04,25,02,27,6.10
2017,04,25,02,28,6.10
2017,04,25,02,29,6.10
2017,04,25,02,30,6.00
2017,04,25,02,31,6.00
2017,04,25,02,32,6.00
2017,04,25,02,33,6.00
2017,04,25,02,34,6.00
2017,04,25,02,35,6.00
2017,04,25,02,36,5.90
2017,04,25,02,37,5.90
2017,04,25,02,38,5.90
2017,04,25,02,39,5.90
2017,04,25,02,40,5.90
2017,04,25,02,41,5.90
2017,04,25,02,42,5.90
2017,04,25,02,43,5.90
2017,04,25,02,44,5.90
2017,04,25,02,45,5.90
2017,04,25,02,46,5.90
2017,04,25,02,47,5.90
2017,04,25,02,48,5.90
2017,04,25,02,49,5.90
2017,04,25,02,50,5.80
2017,04,25,02,51,5.80
2017,04,25,02,52,5.80
2017,04,25,02,53,5.80
2017,04,25,02,54,5.80
2017,04,25,02,55,5.80
2017,04,25,02,56,5.80
2017,04,25,02,57,5.80
2017,04,25,02,58,5.80
2017,04,25,02,59,5.80
2017,04,25,03,00,5.80
2017,04,25,03,01,5.80
2017,04,25,03,02,5.80
2017,04,25,03,03,5.80
2017,04,25,03,04,5.80
2017,04,25,03,05,5.80
2017,04,25,03,06,5.80
2017,04,25,03,07,5.80
2017,04,25,03,08,5.80
2017,04,25,03,09,5.70
2017,04,25,03,10,5.70
2017,04,25,03,11,5.70
2017,04,25,03,12,5.70
2017,04,25,03,13,5.70
2017,04,25,03,14,5.70
2017,04,25,03,15,5.70
2017,04,25,03,16,5.70
2017,04,25,03,17,5.70
2017,04,25,03,18,5.70
2017,04,25,03,19,5.60
2017,04,25,03,20,5.60
2017,04,25,03,21,5.60
2017,04,25,03,22,5.60
2017,04,25,03,23,5.60
2017,04,25,03,24,5.70
2017,04,25,03,25,5.70
2017,04,25,03,26,5.70
2017,04,25,03,27,5.70
2017,04,25,03,28,5.70
2017,04,25,03,29,5.70
2017,04,25,03,30,5.80
2017,04,25,03,31,5.80
2017,04,25,03,32,5.80
2017,04,25,03,33,5.80
2017,04,25,03,34,5.80
2017,04,25,03,35,5.80
2017,04,25,03,36,5.80
2017,04,25,03,37,5.80
2017,04,25,03,38,5.80
2017,04,25,03,39,5.80
2017,04,25,03,40,5.80
2017,04,25,03,41,5.90
2017,04,25,03,42,5.90
2017,04,25,03,43,5.90
2017,04,25,03,44,5.90
2017,04,25,03,45,5.90
2017,04,25,03,46,5.90
2017,04,25,03,47,5.90
2017,04,25,03,48,6.00
2017,04,25,03,49,6.00
2017,04,25,03,50,6.00
2017,04,25,03,51,6.10
2017,04,25,03,52,6.10
2017,04,25,03,53,6.10
2017,04,25,03,54,6.10
2017,04,25,03,55,6.10
2017,04,25,03,56,6.10
2017,04,25,03,57,6.20
2017,04,25,03,58,6.20
2017,04,25,03,59,6.20
2017,04,25,04,00,6.20
2017,04,25,04,01,6.20
2017,04,25,04,02,6.20
2017,04,25,04,03,6.20
2017,04,25,04,04,6.20
2017,04,25,04,05,6.20
2017,04,25,04,06,6.20
2017,04,25,04,07,6.20
2017,04,25,04,08,6.20
2017,04,25,04,09,6.20
2017,04,25,04,10,6.20
2017,04,25,04,11,6.20
2017,04,25,04,12,6.20
2017,04,25,04,13,6.20
2017,04,25,04,14,6.20
2017,04,25,04,15,6.20
2017,04,25,04,16,6.20
2017,04,25,04,17,6.20
2017,04,25,04,18,6.20
2017,04,25,04,19,6.20
2017,04,25,04,20,6.20
2017,04,25,04,21,6.20
2017,04,25,04,22,6.20
2017,04,25,04,23,6.20
2017,04,25,04,24,6.20
2017,04,25,04,25,6.20
2017,04,25,04,26,6.20
2017,04,25,04,27,6.20
2017,04,25,04,28,6.20
2017,04,25,04,29,6.20
2017,04,25,04,30,6.20
2017,04,25,04,31,6.20
2017,04,25,04,32,6.20
2017,04,25,04,33,6.20
2017,04,25,04,34,6.20
2017,04,25,04,35,6.20
2017,04,25,04,36,6.10
2017,04,25,04,37,6.10
2017,04,25,04,38,6.10
2017,04,25,04,39,6.10
2017,04,25,04,40,6.10
2017,04,25,04,41,6.10
2017,04,25,04,42,6.10
2017,04,25,04,43,6.00
2017,04,25,04,44,6.00
2017,04,25,04,45,6.00
2017,04,25,04,46,5.90
2017,04,25,04,47,5.90
2017,04,25,04,48,5.90
2017,04,25,04,49,5.90
2017,04,25,04,50,5.90
2017,04,25,04,51,5.80
2017,04,25,04,52,5.80
2017,04,25,04,53,5.80
2017,04,25,04,54,5.80
2017,04,25,04,55,5.80
2017,04,25,04,56,5.80
2017,04,25,04,57,5.80
2017,04,25,04,58,5.70
2017,04,25,04,59,5.70
2017,04,25,05,00,5.70
2017,04,25,05,01,5.70
2017,04,25,05,02,5.70
2017,04,25,05,03,5.70
2017,04,25,05,04,5.60
2017,04,25,05,05,5.60
2017,04,25,05,06,5.60
2017,04,25,05,07,5.60
2017,04,25,05,08,5.60
2017,04,25,05,09,5.60
2017,04,25,05,10,5.50
2017,04,25,05,11,5.50
2017,04,25,05,12,5.50
2017,04,25,05,13,5.50
2017,04,25,05,14,5.50
2017,04,25,05,15,5.50
2017,04,25,05,16,5.50
2017,04,25,05,17,5.50
2017,04,25,05,18,5.50
2017,04,25,05,19,5.40
2017,04,25,05,20,5.40
2017,04,25,05,21,5.40
2017,04,25,05,22,5.40
2017,04,25,05,23,5.40
2017,04,25,05,24,5.40
2017,04,25,05,25,5.40
2017,04,25,05,26,5.40
2017,04,25,05,27,5.40
2017,04,25,05,28,5.40
2017,04,25,05,29,5.40
2017,04,25,05,30,5.30
2017,04,25,05,31,5.30
2017,04,25,05,32,5.30
2017,04,25,05,33,5.30
2017,04,25,05,34,5.30
2017,04,25,05,35,5.30
2017,04,25,05,36,5.30
2017,04,25,05,37,5.30
2017,04,25,05,38,5.30
2017,04,25,05,39,5.30
2017,04,25,05,40,5.30
2017,04,25,05,41,5.20
2017,04,25,05,42,5.20
2017,04,25,05,43,5.20
2017,04,25,05,44,5.20
2017,04,25,05,45,5.20
2017,04,25,05,46,5.20
2017,04,25,05,47,5.20
2017,04,25,05,48,5.20
2017,04,25,05,49,5.20
2017,04,25,05,50,5.10
2017,04,25,05,51,5.10
2017,04,25,05,52,5.10
2017,04,25,05,53,5.10
2017,04,25,05,54,5.10
2017,04,25,05,55,5.10
2017,04,25,05,56,5.10
2017,04,25,05,57,5.10
2017,04,25,05,58,5.10
2017,04,25,05,59,5.10
2017,04,25,06,00,5.10
2017,04,25,06,01,5.10
2017,04,25,06,02,5.10
2017,04,25,06,03,5.10
2017,04,25,06,04,5.10
2017,04,25,06,05,5.10
2017,04,25,06,06,5.10
2017,04,25,06,07,5.00
2017,04,25,06,08,5.10
2017,04,25,06,09,5.10
2017,04,25,06,10,5.10
2017,04,25,06,11,5.10
2017,04,25,06,12,5.10
2017,04,25,06,13,5.10
2017,04,25,06,14,5.10
2017,04,25,06,15,5.10
2017,04,25,06,16,5.20
2017,04,25,06,17,5.20
2017,04,25,06,18,5.20
2017,04,25,06,19,5.20
2017,04,25,06,20,5.20
2017,04,25,06,21,5.30
2017,04,25,06,22,5.30
2017,04,25,06,23,5.30
2017,04,25,06,24,5.30
2017,04,25,06,25,5.30
2017,04,25,06,26,5.30
2017,04,25,06,27,5.30
2017,04,25,06,28,5.40
2017,04,25,06,29,5.40
2017,04,25,06,30,5.40
2017,04,25,06,31,5.40
2017,04,25,06,32,5.40
2017,04,25,06,33,5.40
2017,04,25,06,34,5.40
2017,04,25,06,35,5.50
2017,04,25,06,36,5.50
2017,04,25,06,37,5.50
2017,04,25,06,38,5.50
2017,04,25,06,39,5.50
2017,04,25,06,40,5.60
2017,04,25,06,41,5.60
2017,04,25,06,42,5.60
2017,04,25,06,43,5.70
2017,04,25,06,44,5.70
2017,04,25,06,45,5.70
2017,04,25,06,46,5.70
2017,04,25,06,47,5.70
2017,04,25,06,48,5.70
2017,04,25,06,49,5.70
2017,04,25,06,50,5.80
2017,04,25,06,51,5.80
2017,04,25,06,52,5.80
2017,04,25,06,53,5.80
2017,04,25,06,54,5.80
2017,04,25,06,55,5.90
2017,04,25,06,56,5.90
2017,04,25,06,57,5.90
2017,04,25,06,58,5.90
2017,04,25,06,59,6.00
2017,04,25,07,00,6.00
2017,04,25,07,01,6.10
2017,04,25,07,02,6.10
2017,04,25,07,03,6.10
2017,04,25,07,04,6.10
2017,04,25,07,05,6.20
2017,04,25,07,06,6.20
2017,04,25,07,07,6.20
2017,04,25,07,08,6.30
2017,04,25,07,09,6.30
2017,04,25,07,10,6.30
2017,04,25,07,11,6.30
2017,04,25,07,12,6.30
2017,04,25,07,13,6.30
2017,04,25,07,14,6.40
2017,04,25,07,15,6.40
2017,04,25,07,16,6.40
2017,04,25,07,17,6.40
2017,04,25,07,18,6.40
2017,04,25,07,19,6.40
2017,04,25,07,20,6.40
2017,04,25,07,21,6.40
2017,04,25,07,22,6.40
2017,04,25,07,23,6.40
2017,04,25,07,24,6.40
2017,04,25,07,25,6.50
2017,04,25,07,26,6.50
2017,04,25,07,27,6.50
2017,04,25,07,28,6.50
2017,04,25,07,29,6.50
2017,04,25,07,30,6.50
2017,04,25,07,31,6.50
2017,04,25,07,32,6.50
2017,04,25,07,33,6.50
2017,04,25,07,34,6.50
2017,04,25,07,35,6.50
2017,04,25,07,36,6.50
2017,04,25,07,37,6.50
2017,04,25,07,38,6.50
2017,04,25,07,39,6.50
2017,04,25,07,40,6.60
2017,04,25,07,41,6.60
2017,04,25,07,42,6.60
2017,04,25,07,43,6.60
2017,04,25,07,44,6.70
2017,04,25,07,45,6.70
2017,04,25,07,46,6.70
2017,04,25,07,47,6.70
2017,04,25,07,48,6.80
2017,04,25,07,49,6.80
2017,04,25,07,50,6.80
2017,04,25,07,51,6.90
2017,04,25,07,52,6.90
2017,04,25,07,53,7.00
2017,04,25,07,54,7.00
2017,04,25,07,55,7.10
2017,04,25,07,56,7.10
2017,04,25,07,57,7.20
2017,04,25,07,58,7.20
2017,04,25,07,59,7.20
2017,04,25,08,00,7.30
2017,04,25,08,01,7.30
2017,04,25,08,02,7.40
2017,04,25,08,03,7.40
2017,04,25,08,04,7.50
2017,04,25,08,05,7.60
2017,04,25,08,06,7.60
2017,04,25,08,07,7.70
2017,04,25,08,08,7.70
2017,04,25,08,09,7.80
2017,04,25,08,10,7.90
2017,04,25,08,11,8.00
2017,04,25,08,12,8.10
2017,04,25,08,13,8.20
2017,04,25,08,14,8.30
2017,04,25,08,15,8.30
2017,04,25,08,16,8.40
2017,04,25,08,17,8.50
2017,04,25,08,18,8.50
2017,04,25,08,19,8.60
2017,04,25,08,20,8.70
2017,04,25,08,21,8.70
2017,04,25,08,22,8.70
2017,04,25,08,23,8.80
2017,04,25,08,24,8.80
2017,04,25,08,25,8.80
2017,04,25,08,26,8.80
2017,04,25,08,27,8.90
2017,04,25,08,28,8.90
2017,04,25,08,29,8.90
2017,04,25,08,30,8.90
2017,04,25,08,31,8.90
2017,04,25,08,32,9.00
2017,04,25,08,33,9.00
2017,04,25,08,34,9.00
2017,04,25,08,35,9.00
2017,04,25,08,36,9.10
2017,04,25,08,37,9.10
2017,04,25,08,38,9.10
2017,04,25,08,39,9.20
2017,04,25,08,40,9.20
2017,04,25,08,41,9.30
2017,04,25,08,42,9.40
2017,04,25,08,43,9.50
2017,04,25,08,44,9.60
2017,04,25,08,45,9.70
2017,04,25,08,46,9.80
2017,04,25,08,47,9.80
2017,04,25,08,48,9.90
2017,04,25,08,49,10.00
2017,04,25,08,50,10.00
2017,04,25,08,51,10.10
2017,04,25,08,52,10.20
2017,04,25,08,53,10.30
2017,04,25,08,54,10.30
2017,04,25,08,55,10.40
2017,04,25,08,56,10.50
2017,04,25,08,57,10.70
2017,04,25,08,58,10.80
2017,04,25,08,59,10.90
2017,04,25,09,00,11.00
2017,04,25,09,01,11.10
2017,04,25,09,02,11.20
2017,04,25,09,03,11.30
2017,04,25,09,04,11.40
2017,04,25,09,05,11.60
2017,04,25,09,06,11.70
2017,04,25,09,07,11.80
2017,04,25,09,08,11.90
2017,04,25,09,09,12.00
2017,04,25,09,10,12.10
2017,04,25,09,11,12.20
2017,04,25,09,12,12.20
2017,04,25,09,13,12.20
2017,04,25,09,14,12.20
2017,04,25,09,15,12.20
2017,04,25,09,16,12.20
2017,04,25,09,17,12.20
2017,04,25,09,18,12.20
2017,04,25,09,19,12.20
2017,04,25,09,20,12.20
2017,04,25,09,21,12.30
2017,04,25,09,22,12.30
2017,04,25,09,23,12.40
2017,04,25,09,24,12.40
2017,04,25,09,25,12.50
2017,04,25,09,26,12.60
2017,04,25,09,27,12.70
2017,04,25,09,28,12.70
2017,04,25,09,29,12.80
2017,04,25,09,30,12.80
2017,04,25,09,31,12.90
2017,04,25,09,32,13.00
2017,04,25,09,33,13.00
2017,04,25,09,34,13.10
2017,04,25,09,35,13.10
2017,04,25,09,36,13.10
2017,04,25,09,37,13.20
2017,04,25,09,38,13.20
2017,04,25,09,39,13.20
2017,04,25,09,40,13.30
2017,04,25,09,41,13.40
2017,04,25,09,42,13.50
2017,04,25,09,43,13.60
2017,04,25,09,44,13.70
2017,04,25,09,45,13.80
2017,04,25,09,46,14.00
2017,04,25,09,47,14.10
2017,04,25,09,48,14.10
2017,04,25,09,49,14.20
2017,04,25,09,50,14.30
2017,04,25,09,51,14.30
2017,04,25,09,52,14.30
2017,04,25,09,53,14.40
2017,04,25,09,54,14.40
2017,04,25,09,55,14.40
2017,04,25,09,56,14.40
2017,04,25,09,57,14.30
2017,04,25,09,58,14.30
2017,04,25,09,59,14.30
2017,04,25,10,00,14.30
2017,04,25,10,01,14.30
2017,04,25,10,02,14.30
2017,04,25,10,03,14.40
2017,04,25,10,04,14.40
2017,04,25,10,05,14.40
2017,04,25,10,06,14.30
2017,04,25,10,07,14.30
2017,04,25,10,08,14.20
2017,04,25,10,09,14.20
2017,04,25,10,10,14.10
2017,04,25,10,11,14.10
2017,04,25,10,12,14.10
2017,04,25,10,13,14.00
2017,04,25,10,14,14.00
2017,04,25,10,15,13.90
2017,04,25,10,16,13.90
2017,04,25,10,17,13.90
2017,04,25,10,18,13.90
2017,04,25,10,19,14.00
2017,04,25,10,20,14.00
2017,04,25,10,21,14.10
2017,04,25,10,22,14.10
2017,04,25,10,23,14.20
2017,04,25,10,24,14.20
2017,04,25,10,25,14.30
2017,04,25,10,26,14.30
2017,04,25,10,27,14.30
2017,04,25,10,28,14.40
2017,04,25,10,29,14.40
2017,04,25,10,30,14.40
2017,04,25,10,31,14.50
2017,04,25,10,32,14.50
2017,04,25,10,33,14.50
2017,04,25,10,34,14.40
2017,04,25,10,35,14.30
2017,04,25,10,36,14.20
2017,04,25,10,37,14.00
2017,04,25,10,38,13.90
2017,04,25,10,39,13.80
2017,04,25,10,40,13.60
2017,04,25,10,41,13.50
2017,04,25,10,42,13.40
2017,04,25,10,43,13.30
2017,04,25,10,44,13.20
2017,04,25,10,45,13.10
2017,04,25,10,46,13.10
2017,04,25,10,47,13.00
2017,04,25,10,48,12.90
2017,04,25,10,49,12.90
2017,04,25,10,50,12.90
2017,04,25,10,51,12.90
2017,04,25,10,52,12.90
2017,04,25,10,53,12.90
2017,04,25,10,54,12.90
2017,04,25,10,55,13.00
2017,04,25,10,56,13.00
2017,04,25,10,57,13.10
2017,04,25,10,58,13.10
2017,04,25,10,59,13.10
2017,04,25,11,00,13.20
2017,04,25,11,01,13.20
2017,04,25,11,02,13.10
2017,04,25,11,03,13.20
2017,04,25,11,04,13.20
2017,04,25,11,05,13.10
2017,04,25,11,06,13.10
2017,04,25,11,07,13.10
2017,04,25,11,08,13.10
2017,04,25,11,09,13.00
2017,04,25,11,10,13.00
2017,04,25,11,11,12.90
2017,04,25,11,12,12.90
2017,04,25,11,13,12.90
2017,04,25,11,14,12.80
2017,04,25,11,15,12.80
2017,04,25,11,16,12.80
2017,04,25,11,17,12.80
2017,04,25,11,18,12.70
2017,04,25,11,19,12.70
2017,04,25,11,20,12.70
2017,04,25,11,21,12.60
2017,04,25,11,22,12.60
2017,04,25,11,23,12.60
2017,04,25,11,24,12.50
2017,04,25,11,25,12.50
2017,04,25,11,26,12.50
2017,04,25,11,27,12.40
2017,04,25,11,28,12.40
2017,04,25,11,29,12.40
2017,04,25,11,30,12.40
2017,04,25,11,31,12.40
2017,04,25,11,32,12.40
2017,04,25,11,33,12.30
2017,04,25,11,34,12.30
2017,04,25,11,35,12.30
2017,04,25,11,36,12.30
2017,04,25,11,37,12.40
2017,04,25,11,38,12.40
2017,04,25,11,39,12.40
2017,04,25,11,40,12.40
2017,04,25,11,41,12.30
2017,04,25,11,42,12.30
2017,04,25,11,43,12.30
2017,04,25,11,44,12.30
2017,04,25,11,45,12.30
2017,04,25,11,46,12.30
2017,04,25,11,47,12.40
2017,04,25,11,48,12.40
2017,04,25,11,49,12.30
2017,04,25,11,50,12.30
2017,04,25,11,51,12.40
2017,04,25,11,52,12.40
2017,04,25,11,53,12.40
2017,04,25,11,54,12.40
2017,04,25,11,55,12.30
2017,04,25,11,56,12.30
2017,04,25,11,57,12.30
2017,04,25,11,58,12.40
2017,04,25,11,59,12.40
2017,04,25,12,00,12.40
2017,04,25,12,01,12.40
2017,04,25,12,02,12.40
2017,04,25,12,03,12.40
2017,04,25,12,04,12.40
2017,04,25,12,05,12.50
2017,04,25,12,06,12.50
2017,04,25,12,07,12.60
2017,04,25,12,08,12.60
2017,04,25,12,09,12.70
2017,04,25,12,10,12.80
2017,04,25,12,11,12.80
2017,04,25,12,12,12.90
2017,04,25,12,13,12.90
2017,04,25,12,14,13.00
2017,04,25,12,15,13.00
2017,04,25,12,16,13.00
2017,04,25,12,17,13.10
2017,04,25,12,18,13.10
2017,04,25,12,19,13.10
2017,04,25,12,20,13.10
2017,04,25,12,21,13.00
2017,04,25,12,22,12.90
2017,04,25,12,23,12.90
2017,04,25,12,24,12.80
2017,04,25,12,25,12.80
2017,04,25,12,26,12.80
2017,04,25,12,27,12.80
2017,04,25,12,28,12.70
2017,04,25,12,29,12.70
2017,04,25,12,30,12.70
2017,04,25,12,31,12.70
2017,04,25,12,32,12.70
2017,04,25,12,33,12.70
2017,04,25,12,34,12.70
2017,04,25,12,35,12.70
2017,04,25,12,36,12.70
2017,04,25,12,37,12.70
2017,04,25,12,38,12.70
2017,04,25,12,39,12.70
2017,04,25,12,40,12.60
2017,04,25,12,41,12.60
2017,04,25,12,42,12.50
2017,04,25,12,43,12.50
2017,04,25,12,44,12.50
2017,04,25,12,45,12.50
2017,04,25,12,46,12.50
2017,04,25,12,47,12.50
2017,04,25,12,48,12.50
2017,04,25,12,49,12.50
2017,04,25,12,50,12.60
2017,04,25,12,51,12.60
2017,04,25,12,52,12.70
2017,04,25,12,53,12.70
2017,04,25,12,54,12.70
2017,04,25,12,55,12.80
2017,04,25,12,56,12.80
2017,04,25,12,57,12.90
2017,04,25,12,58,12.90
2017,04,25,12,59,13.00
2017,04,25,13,00,13.00
2017,04,25,13,01,13.00
2017,04,25,13,02,13.00
2017,04,25,13,03,13.00
2017,04,25,13,04,13.10
2017,04,25,13,05,13.10
2017,04,25,13,06,13.20
2017,04,25,13,07,13.20
2017,04,25,13,08,13.30
2017,04,25,13,09,13.30
2017,04,25,13,10,13.30
2017,04,25,13,11,13.30
2017,04,25,13,12,13.30
2017,04,25,13,13,13.30
2017,04,25,13,14,13.30
2017,04,25,13,15,13.30
2017,04,25,13,16,13.30
2017,04,25,13,17,13.30
2017,04,25,13,18,13.40
2017,04,25,13,19,13.50
2017,04,25,13,20,13.50
2017,04,25,13,21,13.60
2017,04,25,13,22,13.70
2017,04,25,13,23,13.70
2017,04,25,13,24,13.80
2017,04,25,13,25,13.80
2017,04,25,13,26,13.80
2017,04,25,13,27,13.80
2017,04,25,13,28,13.80
2017,04,25,13,29,13.90
2017,04,25,13,30,13.90
2017,04,25,13,31,13.90
2017,04,25,13,32,13.90
2017,04,25,13,33,13.90
2017,04,25,13,34,13.90
2017,04,25,13,35,14.00
2017,04,25,13,36,14.00
2017,04,25,13,37,14.00
2017,04,25,13,38,14.00
2017,04,25,13,39,14.10
2017,04,25,13,40,14.10
2017,04,25,13,41,14.10
2017,04,25,13,42,14.10
2017,04,25,13,43,14.10
2017,04,25,13,44,14.10
2017,04,25,13,45,14.10
2017,04,25,13,46,14.00
2017,04,25,13,47,13.90
2017,04,25,13,48,13.90
2017,04,25,13,49,13.90
2017,04,25,13,50,13.80
2017,04,25,13,51,13.80
2017,04,25,13,52,13.70
2017,04,25,13,53,13.70
2017,04,25,13,54,13.60
2017,04,25,13,55,13.50
2017,04,25,13,56,13.40
2017,04,25,13,57,13.40
2017,04,25,13,58,13.30
2017,04,25,13,59,13.30
2017,04,25,14,00,13.30
2017,04,25,14,01,13.30
2017,04,25,14,02,13.30
2017,04,25,14,03,13.20
2017,04,25,14,04,13.20
2017,04,25,14,05,13.20
2017,04,25,14,06,13.10
2017,04,25,14,07,13.10
2017,04,25,14,08,13.10
2017,04,25,14,09,13.00
2017,04,25,14,10,13.00
2017,04,25,14,11,13.00
2017,04,25,14,12,13.00
2017,04,25,14,13,12.90
2017,04,25,14,14,13.00
2017,04,25,14,15,13.00
2017,04,25,14,16,13.00
2017,04,25,14,17,13.00
2017,04,25,14,18,13.00
2017,04,25,14,19,13.00
2017,04,25,14,20,13.10
2017,04,25,14,21,13.10
2017,04,25,14,22,13.10
2017,04,25,14,23,13.10
2017,04,25,14,24,13.10
2017,04,25,14,25,13.10
2017,04,25,14,26,13.20
2017,04,25,14,27,13.20
2017,04,25,14,28,13.20
2017,04,25,14,29,13.20
2017,04,25,14,30,13.20
2017,04,25,14,31,13.20
2017,04,25,14,32,13.20
2017,04,25,14,33,13.20
2017,04,25,14,34,13.20
2017,04,25,14,35,13.20
2017,04,25,14,36,13.20
2017,04,25,14,37,13.20
2017,04,25,14,38,13.20
2017,04,25,14,39,13.30
2017,04,25,14,40,13.30
2017,04,25,14,41,13.30
2017,04,25,14,42,13.30
2017,04,25,14,43,13.30
2017,04,25,14,44,13.30
2017,04,25,14,45,13.40
2017,04,25,14,46,13.40
2017,04,25,14,47,13.40
2017,04,25,14,48,13.40
2017,04,25,14,49,13.40
2017,04,25,14,50,13.40
2017,04,25,14,51,13.30
2017,04,25,14,52,13.30
2017,04,25,14,53,13.40
2017,04,25,14,54,13.40
2017,04,25,14,55,13.40
2017,04,25,14,56,13.40
2017,04,25,14,57,13.40
2017,04,25,14,58,13.40
2017,04,25,14,59,13.40
2017,04,25,15,00,13.40
2017,04,25,15,01,13.40
2017,04,25,15,02,13.40
2017,04,25,15,03,13.40
2017,04,25,15,04,13.40
2017,04,25,15,05,13.40
2017,04,25,15,06,13.40
2017,04,25,15,07,13.40
2017,04,25,15,08,13.40
2017,04,25,15,09,13.30
2017,04,25,15,10,13.30
2017,04,25,15,11,13.30
2017,04,25,15,12,13.20
2017,04,25,15,13,13.20
2017,04,25,15,14,13.10
2017,04,25,15,15,13.00
2017,04,25,15,16,13.00
2017,04,25,15,17,12.90
2017,04,25,15,18,12.90
2017,04,25,15,19,12.90
2017,04,25,15,20,12.80
2017,04,25,15,21,12.80
2017,04,25,15,22,12.80
2017,04,25,15,23,12.70
2017,04,25,15,24,12.70
2017,04,25,15,25,12.70
2017,04,25,15,26,12.70
2017,04,25,15,27,12.70
2017,04,25,15,28,12.70
2017,04,25,15,29,12.70
2017,04,25,15,30,12.70
2017,04,25,15,31,12.80
2017,04,25,15,32,12.80
2017,04,25,15,33,12.80
2017,04,25,15,34,12.90
2017,04,25,15,35,12.90
2017,04,25,15,36,13.00
2017,04,25,15,37,13.00
2017,04,25,15,38,13.00
2017,04,25,15,39,13.10
2017,04,25,15,40,13.10
2017,04,25,15,41,13.10
2017,04,25,15,42,13.10
2017,04,25,15,43,13.10
2017,04,25,15,44,13.10
2017,04,25,15,45,13.20
2017,04,25,15,46,13.20
2017,04,25,15,47,13.20
2017,04,25,15,48,13.20
2017,04,25,15,49,13.20
2017,04,25,15,50,13.30
2017,04,25,15,51,13.30
2017,04,25,15,52,13.30
2017,04,25,15,53,13.40
2017,04,25,15,54,13.40
2017,04,25,15,55,13.50
2017,04,25,15,56,13.50
2017,04,25,15,57,13.50
2017,04,25,15,58,13.40
2017,04,25,15,59,13.40
2017,04,25,16,00,13.40
2017,04,25,16,01,13.40
2017,04,25,16,02,13.50
2017,04,25,16,03,13.50
2017,04,25,16,04,13.60
2017,04,25,16,05,13.60
2017,04,25,16,06,13.70
2017,04,25,16,07,13.70
2017,04,25,16,08,13.70
2017,04,25,16,09,13.70
2017,04,25,16,10,13.70
2017,04,25,16,11,13.70
2017,04,25,16,12,13.70
2017,04,25,16,13,13.70
2017,04,25,16,14,13.60
2017,04,25,16,15,13.60
2017,04,25,16,16,13.60
2017,04,25,16,17,13.60
2017,04,25,16,18,13.60
2017,04,25,16,19,13.60
2017,04,25,16,20,13.60
2017,04,25,16,21,13.60
2017,04,25,16,22,13.60
2017,04,25,16,23,13.60
2017,04,25,16,24,13.60
2017,04,25,16,25,13.60
2017,04,25,16,26,13.60
2017,04,25,16,27,13.60
2017,04,25,16,28,13.60
2017,04,25,16,29,13.60
2017,04,25,16,30,13.50
2017,04,25,16,31,13.50
2017,04,25,16,32,13.40
2017,04,25,16,33,13.40
2017,04,25,16,34,13.40
2017,04,25,16,35,13.40
2017,04,25,16,36,13.40
2017,04,25,16,37,13.40
2017,04,25,16,38,13.30
2017,04,25,16,39,13.30
2017,04,25,16,40,13.30
2017,04,25,16,41,13.20
2017,04,25,16,42,13.20
2017,04,25,16,43,13.20
2017,04,25,16,44,13.10
2017,04,25,16,45,13.10
2017,04,25,16,46,13.10
2017,04,25,16,47,13.00
2017,04,25,16,48,13.00
2017,04,25,16,49,12.90
2017,04,25,16,50,12.90
2017,04,25,16,51,12.90
2017,04,25,16,52,12.80
2017,04,25,16,53,12.80
2017,04,25,16,54,12.80
2017,04,25,16,55,12.80
2017,04,25,16,56,12.70
2017,04,25,16,57,12.70
2017,04,25,16,58,12.60
2017,04,25,16,59,12.60
2017,04,25,17,00,12.60
2017,04,25,17,01,12.50
2017,04,25,17,02,12.50
2017,04,25,17,03,12.40
2017,04,25,17,04,12.40
2017,04,25,17,05,12.40
2017,04,25,17,06,12.40
2017,04,25,17,07,12.40
2017,04,25,17,08,12.40
2017,04,25,17,09,12.40
2017,04,25,17,10,12.40
2017,04,25,17,11,12.40
2017,04,25,17,12,12.40
2017,04,25,17,13,12.40
2017,04,25,17,14,12.30
2017,04,25,17,15,12.30
2017,04,25,17,16,12.30
2017,04,25,17,17,12.30
2017,04,25,17,18,12.30
2017,04,25,17,19,12.30
2017,04,25,17,20,12.30
2017,04,25,17,21,12.30
2017,04,25,17,22,12.30
2017,04,25,17,23,12.30
2017,04,25,17,24,12.30
2017,04,25,17,25,12.30
2017,04,25,17,26,12.30
2017,04,25,17,27,12.30
2017,04,25,17,28,12.40
2017,04,25,17,29,12.40
2017,04,25,17,30,12.40
2017,04,25,17,31,12.40
2017,04,25,17,32,12.40
2017,04,25,17,33,12.40
2017,04,25,17,34,12.40
2017,04,25,17,35,12.40
2017,04,25,17,36,12.40
2017,04,25,17,37,12.30
2017,04,25,17,38,12.30
2017,04,25,17,39,12.30
2017,04,25,17,40,12.30
2017,04,25,17,41,12.20
2017,04,25,17,42,12.20